{"data":{"norad_id":56202,"intl_designator":"2023-054AA","name":"NUSAT-38 (MARIA AGNESI)","alt_names":[],"object_type":"PAYLOAD","status":"ACTIVE","operator":null,"country":"ARGN","launch_date":"2023-04-15","launch_site_code":"AFWTR","launch_vehicle":null,"mission":null,"orbit_class":"UNKNOWN","rcs_meters":null,"size_class":null,"mass_kg":null,"dimensions":null,"purposes":[],"wikipedia_slug":null,"has_3d_model":false,"image_url":null,"decayed_at":null,"tle_current":{"epoch":"2026-09-21T21:57:43.206624Z","epoch_age_seconds":64950,"freshness":"FRESH","line1":"1 56202U 23054AA  26264.91508341  .00030036  00000+0  44324-3 0  9991","line2":"2 56202  97.2962 176.8921 0012768  70.1829 290.0801 15.55229086193519","mean_motion":15.55229086,"eccentricity":0.0012768,"inclination_deg":97.2962,"raan_deg":176.8921,"arg_perigee_deg":70.1829,"mean_anomaly_deg":290.0801,"bstar":0.00044324,"rev_number":19351,"period_min":92.590860919637,"perigee_km":392.83056273463,"apogee_km":410.14301003555,"semimajor_km":6779.6237863851,"source":"CELESTRAK","updated_at":"2026-09-22T09:00:25.735812Z"}}}